TimeCST,TemperatureF,Dew PointF,Humidity,Sea Level PressureIn,VisibilityMPH,Wind Direction,Wind SpeedMPH,Gust SpeedMPH,PrecipitationIn,Events,Conditions,WindDirDegrees,DateUTC
12:53 AM,34.0,28.9,82,30.14,10.0,Calm,Calm,-,N/A,,Clear,0,2013-03-04 06:53:00
1:53 AM,33.1,28.0,82,30.13,10.0,Calm,Calm,-,N/A,,Clear,0,2013-03-04 07:53:00
2:53 AM,35.1,28.9,78,30.13,10.0,Calm,Calm,-,N/A,,Clear,0,2013-03-04 08:53:00
3:53 AM,33.1,28.0,82,30.12,10.0,Calm,Calm,-,N/A,,Clear,0,2013-03-04 09:53:00
4:53 AM,32.0,28.0,85,30.12,10.0,Calm,Calm,-,N/A,,Clear,0,2013-03-04 10:53:00
5:53 AM,30.9,27.0,85,30.13,10.0,Calm,Calm,-,N/A,,Clear,0,2013-03-04 11:53:00
6:53 AM,32.0,28.0,85,30.13,10.0,Calm,Calm,-,N/A,,Clear,0,2013-03-04 12:53:00
7:53 AM,43.0,36.0,76,30.14,10.0,ESE,4.6,-,N/A,,Clear,120,2013-03-04 13:53:00
8:53 AM,53.1,39.0,59,30.13,10.0,SSE,9.2,-,N/A,,Clear,160,2013-03-04 14:53:00
9:53 AM,60.1,37.0,42,30.14,10.0,South,13.8,19.6,N/A,,Clear,170,2013-03-04 15:53:00
10:53 AM,64.0,39.0,40,30.12,10.0,South,16.1,23.0,N/A,,Clear,180,2013-03-04 16:53:00
11:53 AM,64.9,39.0,39,30.07,10.0,South,16.1,28.8,N/A,,Clear,190,2013-03-04 17:53:00
12:53 PM,69.1,42.1,38,30.04,10.0,South,23.0,29.9,N/A,,Clear,170,2013-03-04 18:53:00
1:53 PM,66.9,42.1,40,30.01,10.0,South,18.4,28.8,N/A,,Clear,190,2013-03-04 19:53:00
2:53 PM,66.9,45.0,45,30.00,10.0,South,17.3,32.2,N/A,,Mostly Cloudy,180,2013-03-04 20:53:00
3:53 PM,66.0,46.0,48,29.99,10.0,South,13.8,29.9,N/A,,Mostly Cloudy,180,2013-03-04 21:53:00
4:53 PM,64.9,46.9,52,30.00,10.0,South,16.1,27.6,N/A,,Overcast,180,2013-03-04 22:53:00
5:53 PM,62.1,46.9,58,29.97,10.0,South,17.3,21.9,N/A,,Partly Cloudy,170,2013-03-04 23:53:00
6:53 PM,60.1,48.0,64,29.97,10.0,SSE,11.5,-,N/A,,Clear,160,2013-03-05 00:53:00
7:53 PM,59.0,48.9,69,29.97,10.0,South,12.7,-,N/A,,Clear,170,2013-03-05 01:53:00
8:53 PM,59.0,50.0,72,29.97,10.0,South,10.4,-,N/A,,Overcast,170,2013-03-05 02:53:00
9:53 PM,59.0,51.1,75,29.97,10.0,South,9.2,-,N/A,,Mostly Cloudy,170,2013-03-05 03:53:00
10:53 PM,60.1,51.1,72,29.96,10.0,South,9.2,-,N/A,,Clear,190,2013-03-05 04:53:00
11:53 PM,59.0,52.0,78,29.96,10.0,South,6.9,-,N/A,,Partly Cloudy,180,2013-03-05 05:53:00